Location: Middelsbur
(53.6609°N, 7.5020°E)
Time: 23:50:33
(UTC+00:00)

USA 267 - Pass Details

Date: 06 July 2020
Orbit: 1102 x 1106 km, 123.0° (Epoch: 12 August)

Event Time Altitude Azimuth Distance (km) Brightness Sun altitude
Exits shadow 20:49:13 - 112° (ESE) 3,749 5.5 -5.8°
Reaches altitude 10° 20:51:16 10° 113° (ESE) 2,959 5.0 -6.0°
Maximum altitude 20:57:50 88° 204° (SSW) 1,109 3.3 -6.6°
Drops below altitude 10° 21:04:24 10° 294° (WNW) 2,967 6.6 -7.1°
Sets 21:06:53 0° 295° (WNW) 3,927 7.3 -7.3°
